Theta_e
338 337 340 341 342 340 337 338 339 342 342 341 342 342 341 342 343 345 346 345 345 346 346 345 344 342 339 338 338 338 337 336 334 331 330 330 329 329 332 332 332 332 331 326 328 317 316 310 312 317 315 313 313 312 311 310 310 309 312 310 310 310 312
342 342 341 341 340 340 338 339 339 340 342 341 341 342 342 341 342 344 344 345 346 345 345 344 345 343 340 338 337 335 334 334 332 333 332 331 331 330 330 330 331 329 329 329 328 328 322 317 313 312 312 316 314 314 315 313 311 312 313 311 309 309 312
343 341 340 339 339 338 336 337 339 339 340 341 341 340 342 341 342 343 344 344 346 346 342 343 344 341 339 337 336 335 335 334 334 333 331 332 333 334 332 330 328 328 327 326 325 324 324 322 317 313 313 311 309 311 315 313 314 311 312 311 311 309 310
343 341 339 338 337 336 334 336 337 337 338 339 341 341 341 342 343 343 343 344 346 346 345 343 343 339 338 338 337 337 337 336 335 334 332 334 334 334 333 332 330 329 326 324 323 323 321 319 317 316 314 313 310 310 313 315 312 312 310 311 309 309 311
343 341 339 337 337 334 333 334 335 335 337 339 340 341 342 342 343 343 344 344 345 345 344 345 342 340 338 338 339 339 339 338 337 335 333 331 333 333 333 332 331 331 329 327 326 326 324 321 321 317 316 315 313 312 315 314 314 313 311 309 310 310 310
344 343 341 339 336 332 332 332 333 334 337 337 338 339 342 343 343 343 343 343 344 345 345 344 342 340 340 339 339 338 337 336 336 338 334 333 332 332 332 333 333 332 330 330 331 328 328 326 324 317 317 317 316 313 313 313 311 313 312 309 309 310 310
344 345 343 340 337 335 334 333 335 336 337 337 338 339 341 343 343 344 344 344 345 345 345 344 342 340 341 340 337 336 337 336 337 338 337 336 335 335 336 333 333 332 330 331 329 331 328 325 320 319 319 320 319 312 313 311 313 310 310 310 309 309 310
345 345 345 342 341 340 339 339 338 339 338 338 339 340 341 342 343 344 345 345 344 343 344 343 342 341 341 339 336 336 335 335 336 338 337 337 335 335 335 334 334 332 332 332 332 329 327 326 326 323 320 315 315 313 309 312 311 310 309 309 309 308 309
345 346 345 344 343 343 342 341 340 340 340 340 340 340 341 342 343 343 344 344 344 343 344 343 342 341 339 337 336 336 334 335 335 338 337 335 335 335 335 335 334 333 333 333 331 329 329 329 328 327 325 320 314 311 313 310 309 308 311 307 308 309 308
347 346 345 346 345 345 344 343 342 341 341 341 340 340 340 341 343 343 343 344 344 343 343 342 341 340 339 337 335 335 334 335 336 337 336 334 335 336 335 335 334 334 334 333 331 331 330 329 330 327 324 321 320 314 311 308 310 308 308 309 305 306 308
348 347 347 347 347 345 345 344 344 342 341 342 341 340 340 340 342 343 343 344 344 343 343 342 341 340 339 338 336 336 336 336 336 335 335 336 336 336 336 335 334 333 333 333 331 331 331 330 328 328 325 324 324 318 315 311 311 311 310 308 308 305 307
349 348 348 348 348 346 344 344 343 343 343 342 341 340 340 340 341 343 343 343 344 343 342 342 342 340 340 339 338 337 337 335 334 333 335 336 337 336 335 334 334 333 334 333 331 331 329 330 329 327 325 325 323 320 318 316 309 316 313 308 307 308 306
349 348 348 348 347 346 345 344 344 343 343 342 341 341 340 339 340 341 342 343 343 343 342 341 341 341 339 339 338 337 337 336 335 334 335 336 335 334 334 333 332 331 332 332 331 330 329 328 327 326 324 324 324 322 321 316 312 314 318 315 308 307 307
349 348 348 349 348 347 346 344 344 344 344 343 342 342 340 339 340 341 342 342 342 342 341 340 341 340 338 338 338 337 336 335 334 334 334 333 333 332 331 331 331 332 332 331 329 330 328 327 326 326 325 323 322 321 319 316 311 313 313 318 312 312 308
349 349 348 348 348 347 346 345 345 344 344 344 343 342 341 340 340 341 340 340 341 341 341 341 341 340 338 337 336 336 335 334 333 332 333 332 332 332 331 330 329 329 331 330 330 328 326 325 324 323 322 323 319 319 318 316 313 311 308 314 311 307 307
348 348 348 348 348 347 347 346 345 344 344 345 344 342 342 341 341 340 339 340 340 340 341 341 340 338 338 337 335 335 335 334 332 332 332 331 331 330 329 328 328 328 330 328 328 328 326 324 323 320 321 320 316 315 316 316 314 310 310 310 311 305 306
347 347 346 347 347 347 347 346 346 345 344 345 344 343 343 342 341 340 339 340 340 339 341 341 339 338 338 336 335 335 334 333 333 332 331 330 330 329 328 327 327 328 328 327 327 326 324 323 321 319 319 316 314 316 316 316 315 311 311 308 309 306 308
347 346 346 346 347 347 347 346 346 345 345 344 345 344 343 342 341 340 339 339 339 340 341 340 338 338 337 336 336 335 334 333 332 332 331 330 332 329 328 327 327 326 325 326 325 324 322 320 319 317 315 313 312 314 316 317 312 311 311 310 310 310 308
347 346 346 347 347 347 347 347 346 344 344 344 345 345 343 342 341 340 339 339 339 339 340 340 338 337 337 336 336 334 334 332 332 331 331 330 330 329 328 328 326 325 324 324 323 322 321 319 317 315 314 313 312 313 313 314 313 310 308 312 310 308 308
346 346 346 347 347 347 347 347 345 344 343 344 344 343 343 342 341 340 339 339 338 339 340 339 338 337 337 336 335 333 333 332 332 331 331 330 329 329 328 327 326 325 324 324 323 321 319 318 318 316 315 314 314 312 313 312 310 310 310 310 309 307 306
346 346 346 346 347 347 347 346 345 344 344 344 344 343 343 342 342 340 339 338 338 339 339 338 338 337 337 336 334 333 332 332 331 331 330 330 329 328 328 327 326 325 324 323 322 321 320 317 317 315 314 314 313 313 311 312 310 309 309 307 305 305 304
346 345 345 346 346 346 346 346 345 344 343 343 344 344 344 343 342 340 339 339 338 338 339 338 338 337 336 335 334 332 332 332 330 329 329 329 328 328 327 326 325 324 325 327 321 320 320 320 317 313 313 313 311 313 311 311 310 307 306 305 305 307 304
345 345 345 345 345 346 346 346 345 344 344 343 343 344 344 343 342 341 339 338 338 338 338 339 331 323 324 333 333 332 332 331 330 329 328 327 326 326 326 324 325 326 323 321 317 312 310 312 315 316 314 312 311 313 311 308 306 305 306 304 304 305 303
344 343 343 344 345 346 346 345 344 343 343 343 343 343 343 342 341 340 339 338 337 337 338 337 318 311 312 317 330 332 331 330 330 329 327 326 324 324 323 322 322 323 321 319 314 307 305 303 302 304 308 313 317 314 309 306 304 305 305 305 305 306 303
342 342 343 343 344 345 345 345 343 343 342 342 342 342 342 342 341 340 340 338 337 337 337 324 309 309 310 310 319 331 331 330 329 328 327 325 324 322 321 320 320 322 318 315 310 306 304 300 297 297 297 298 297 297 304 309 307 305 306 305 305 304 304
341 341 342 343 343 344 344 344 343 342 341 342 342 341 341 341 340 340 339 338 336 336 336 314 306 307 307 307 310 322 330 330 328 326 326 325 323 322 320 319 319 318 318 316 312 309 306 303 300 298 299 299 298 295 292 292 298 311 311 309 306 304 304
340 341 342 342 342 342 343 343 343 342 342 342 341 341 341 340 340 340 339 338 336 336 337 311 305 306 306 306 306 315 330 329 327 326 325 325 324 322 321 318 317 317 316 313 311 310 307 305 303 302 303 305 305 301 295 294 293 293 303 310 310 307 308
339 340 341 341 340 341 342 343 343 342 341 341 340 339 339 340 340 339 338 338 337 336 337 305 304 304 304 305 304 313 330 329 327 325 325 325 323 322 321 320 318 317 315 313 313 311 309 307 305 305 305 306 306 306 306 306 306 309 310 312 311 311 311
335 336 340 341 340 340 341 342 341 342 341 341 341 340 340 340 339 338 339 338 336 335 334 301 303 303 303 304 303 324 329 327 325 325 325 324 324 322 321 320 318 317 315 313 309 303 306 308 305 304 304 304 305 306 307 308 302 302 308 311 310 307 303
334 337 339 340 340 340 341 341 342 342 340 340 339 339 339 339 339 338 338 337 335 335 321 303 302 303 304 303 307 326 327 327 325 324 324 323 323 322 320 319 317 317 316 314 305 298 299 304 305 304 303 303 303 304 304 304 295 293 293 292 292 292 292
334 335 339 340 340 339 341 341 341 341 340 339 338 338 339 339 339 338 337 336 335 334 320 305 300 301 302 302 313 326 326 326 324 323 323 322 322 321 320 318 319 316 315 313 298 296 296 303 304 303 302 302 302 303 304 305 303 300 293 292 292 291 291
335 337 339 340 339 339 339 340 341 341 340 339 338 339 337 337 337 337 337 336 325 332 320 307 298 300 300 301 314 326 325 325 324 322 321 320 321 320 318 316 315 314 315 308 295 296 296 303 305 304 303 303 303 303 305 305 303 300 301 300 300 301 300
335 337 339 339 339 339 340 340 340 339 339 339 338 338 336 336 336 336 336 335 332 332 321 311 302 299 300 301 307 324 325 324 323 321 320 319 318 317 316 316 310 302 301 296 295 295 296 299 306 306 306 304 304 304 308 307 306 304 301 301 301 302 303
334 336 339 339 339 338 339 339 339 338 338 338 337 337 336 335 335 334 334 334 333 331 321 313 305 298 299 301 304 312 323 324 324 322 320 318 318 316 315 314 313 302 295 295 295 295 295 297 301 311 309 309 310 308 306 309 306 307 304 302 301 302 302
334 335 339 339 338 338 339 339 339 338 338 336 336 335 335 333 333 332 332 332 332 332 319 310 308 297 298 300 302 306 320 323 323 322 320 319 317 316 314 313 312 300 294 295 295 295 296 296 297 310 310 301 298 299 306 309 307 305 305 302 300 299 299
335 339 339 338 338 337 339 338 338 337 336 336 335 333 333 332 331 330 330 330 330 331 320 312 303 302 297 299 300 303 306 315 307 321 320 318 316 315 314 313 309 297 294 294 294 295 296 295 298 303 292 294 297 295 298 307 305 304 302 300 298 297 297
337 339 338 338 338 337 337 337 336 336 336 334 333 333 332 331 330 329 328 328 328 328 320 314 303 301 301 297 299 301 300 305 305 318 319 318 316 314 313 310 302 294 294 294 294 294 295 295 300 292 291 292 292 294 303 305 303 302 301 300 299 298 298
Wind_Speed
11 12 12 10 9 9 10 10 8 7 8 9 8 8 9 7 7 7 6 6 5 6 6 7 7 6 6 10 9 8 7 5 5 5 6 7 8 7 8 7 5 4 4 5 3 6 5 6 5 4 4 6 7 5 7 7 6 7 7 7 6 7 7
10 9 8 8 9 9 11 9 8 8 7 8 8 7 7 8 7 7 7 6 5 5 6 6 7 8 10 10 10 8 8 7 6 6 3 6 8 8 8 7 5 5 4 4 4 2 1 3 6 7 6 4 5 6 6 5 5 6 8 8 6 6 8
9 10 9 10 8 8 10 10 8 8 8 7 7 8 6 8 7 7 6 7 6 6 6 7 8 8 7 7 9 9 9 9 8 8 10 8 8 7 7 6 6 5 3 3 5 4 4 4 3 6 7 8 7 7 7 6 4 4 7 8 6 3 4
12 13 11 11 9 8 10 10 10 8 8 8 6 7 7 7 6 6 6 6 7 6 6 6 7 8 7 8 8 9 10 11 9 11 10 8 7 7 7 6 7 6 6 5 5 6 5 3 5 4 7 8 11 9 7 7 5 4 3 7 5 5 3
12 13 14 15 13 13 12 11 10 9 8 8 7 7 8 7 6 6 7 7 7 6 6 5 6 6 7 7 7 8 8 11 9 10 10 9 10 7 7 6 6 6 5 6 5 5 5 4 3 4 4 7 8 7 6 5 5 3 4 7 7 6 6
11 11 12 13 11 12 11 11 11 11 10 9 9 9 7 8 7 7 8 8 7 7 6 6 6 7 7 7 7 6 6 5 7 8 9 10 10 7 8 7 6 6 6 6 4 5 3 3 3 4 5 5 0 4 6 8 4 4 5 6 7 7 7
11 11 11 10 10 10 10 12 13 12 11 11 10 10 9 9 8 7 7 8 7 6 6 6 7 6 6 6 6 6 5 4 3 6 7 8 9 9 6 6 6 5 6 5 6 4 3 4 4 4 3 3 1 3 4 6 5 6 4 4 6 6 7
12 10 10 10 11 11 11 11 11 11 10 10 10 9 9 9 9 9 8 8 8 7 6 7 7 6 6 5 5 4 4 4 4 5 6 6 6 8 6 6 6 7 6 5 5 4 4 5 4 4 3 3 3 5 4 7 7 8 6 5 6 5 6
11 10 9 10 10 10 11 10 10 11 10 10 9 10 10 9 10 10 9 9 9 8 8 8 7 7 7 7 5 5 5 4 5 7 5 6 5 6 7 6 5 5 5 5 4 5 5 4 5 4 4 3 3 3 4 5 7 8 8 5 4 5 6
13 12 11 11 13 10 9 9 9 10 9 9 9 9 11 10 9 10 10 10 9 8 9 9 8 8 8 7 6 6 6 6 6 6 5 6 6 6 5 7 6 5 5 4 5 5 6 5 3 4 5 6 4 4 2 4 5 4 8 7 5 5 5
14 13 11 11 11 11 10 9 8 9 10 9 9 9 10 11 10 11 10 10 9 9 10 9 9 9 9 7 8 7 7 6 5 2 3 5 6 5 6 6 5 5 4 4 5 5 4 5 4 3 3 3 3 4 4 4 3 5 4 6 5 5 5
13 12 11 11 10 12 12 10 10 10 9 9 10 10 11 11 10 10 10 10 9 9 9 9 10 9 10 9 9 7 8 7 6 6 5 6 6 7 7 7 6 5 5 5 4 4 5 3 2 3 3 4 5 4 4 2 1 1 4 5 4 7 7
15 14 12 11 10 12 13 12 10 11 11 9 9 10 11 11 11 11 11 11 11 10 10 10 10 9 9 9 8 8 8 10 9 9 8 7 5 6 6 7 7 6 5 4 5 5 4 4 3 3 4 6 3 1 0 1 1 1 3 0 4 4 9
14 14 14 12 11 11 12 12 11 9 10 11 11 11 12 12 12 12 12 11 12 11 11 10 10 9 9 9 8 8 9 9 10 8 7 8 8 8 8 7 7 6 5 5 5 5 5 5 4 4 6 5 4 1 1 2 2 1 1 3 3 3 6
14 13 13 13 12 12 12 13 12 10 11 12 12 12 12 11 11 13 13 14 12 12 12 12 11 10 10 10 10 8 8 10 10 9 8 8 9 8 6 7 7 6 5 6 5 6 6 5 6 7 7 3 2 3 4 3 3 2 2 0 3 6 4
14 14 14 13 14 14 13 13 13 14 12 11 11 11 12 12 12 13 12 12 12 12 12 12 11 10 10 11 11 10 10 9 9 9 9 9 9 7 7 6 6 6 6 7 7 6 8 10 10 7 4 3 3 4 5 5 3 4 5 3 4 5 3
14 14 14 12 15 14 13 12 13 13 14 11 12 11 11 13 12 13 13 12 13 12 13 11 11 11 12 12 11 11 10 9 8 8 8 8 8 7 9 9 9 8 8 9 8 9 6 3 3 3 4 4 6 6 4 5 5 3 3 6 3 5 4
14 14 14 13 14 14 13 13 11 13 13 13 13 12 13 13 13 13 12 13 14 13 12 12 12 12 11 10 11 10 10 10 8 8 8 7 7 7 9 10 9 8 4 6 8 7 5 3 3 3 5 5 6 5 3 4 5 4 3 7 4 3 6
14 15 16 14 14 14 13 12 13 12 13 13 13 13 14 12 13 15 14 14 13 12 11 11 12 12 12 10 10 10 10 9 9 8 8 8 8 7 7 6 8 7 6 7 6 5 4 4 4 5 5 5 5 5 4 3 4 4 4 6 5 5 3
13 14 15 14 13 13 14 13 14 14 13 13 13 13 14 14 12 14 15 14 14 12 12 12 11 11 12 12 11 11 9 9 9 8 7 8 8 7 6 5 5 7 9 9 5 5 5 5 6 5 5 4 3 5 4 4 4 3 4 5 5 7 5
15 15 14 14 13 13 14 13 14 13 13 14 14 14 14 14 12 12 13 13 13 12 12 11 11 12 12 12 11 10 10 9 9 8 8 8 8 8 6 6 5 5 6 6 6 5 6 7 5 5 4 4 4 4 6 5 5 4 5 4 4 5 4
14 14 14 14 14 14 14 14 13 13 13 14 12 13 13 13 13 13 13 12 13 12 12 12 11 12 13 13 11 11 11 11 10 9 8 8 8 7 6 5 4 4 5 8 11 8 9 7 6 6 5 5 5 4 6 6 6 6 6 5 5 4 6
14 14 14 14 15 15 14 13 13 14 14 14 12 12 13 13 14 14 14 13 12 11 11 10 13 18 16 12 11 11 10 10 11 9 9 8 8 7 7 4 4 8 10 11 12 12 12 11 8 5 6 5 6 5 7 6 6 6 6 7 7 6 6
13 14 14 14 14 15 15 13 14 14 14 13 14 13 12 14 15 14 15 14 12 12 12 11 18 19 19 18 14 11 11 10 9 9 9 7 6 7 4 4 4 7 9 10 10 11 10 10 8 4 2 6 6 7 7 6 7 6 6 6 6 6 6
14 14 15 15 15 15 14 14 14 15 14 14 14 13 12 13 14 13 12 14 13 12 12 14 19 20 20 20 16 11 10 9 8 8 8 7 5 5 5 4 4 4 5 7 7 8 9 10 11 10 9 9 9 7 3 5 6 6 5 6 6 6 5
14 14 15 16 15 15 15 15 15 15 16 15 13 13 14 13 13 13 13 14 14 12 11 15 20 21 20 19 18 13 9 8 9 8 7 7 7 6 6 6 5 5 5 11 9 8 8 7 9 11 10 8 8 9 7 6 5 2 1 4 5 6 6
13 14 14 15 15 15 15 16 16 14 13 13 13 14 14 15 13 14 14 14 13 12 12 14 21 21 20 20 18 14 8 9 9 9 9 8 7 7 7 7 6 6 5 8 7 8 7 7 7 6 5 4 4 5 6 5 3 3 1 1 1 2 4
11 12 14 14 14 15 16 15 15 14 14 15 16 16 16 14 13 13 13 12 12 12 9 16 20 21 20 20 19 15 9 9 9 9 9 9 8 7 6 7 7 7 7 8 7 9 8 8 7 6 5 5 4 4 4 3 2 2 2 1 1 3 2
13 11 13 15 15 15 15 15 16 15 14 13 13 12 12 12 13 14 13 11 11 12 7 18 20 22 22 21 20 13 10 10 9 9 9 9 8 8 8 7 7 7 8 8 10 14 11 8 7 7 6 4 4 3 4 3 6 6 5 4 4 3 3
14 16 16 16 16 15 15 16 15 12 13 14 14 15 14 14 12 12 12 11 11 11 7 15 20 23 24 24 18 12 11 8 9 10 9 9 8 8 8 7 7 6 7 8 11 14 14 13 7 8 8 6 4 4 4 3 6 9 11 11 10 9 8
14 16 17 18 17 16 16 15 15 13 15 16 15 15 14 11 11 11 12 12 11 10 7 13 18 18 21 23 20 14 11 9 8 8 8 8 7 6 8 13 10 7 7 8 14 15 15 13 8 8 7 7 6 5 4 4 3 5 7 9 8 7 7
16 17 18 18 17 17 16 16 14 13 13 14 14 12 11 11 10 10 11 11 11 11 9 13 18 19 19 20 18 12 10 10 9 8 8 8 6 5 6 9 14 11 8 11 18 16 16 13 8 8 7 7 7 6 5 7 6 4 2 3 2 2 2
16 16 18 18 17 17 15 14 13 13 13 13 13 12 12 11 12 11 10 10 8 9 11 12 15 19 20 20 19 12 10 10 11 10 9 9 8 7 7 6 10 15 12 17 19 18 17 15 9 7 7 8 7 6 4 6 4 2 5 5 4 4 4
19 16 15 17 16 15 14 14 14 13 13 12 12 12 13 11 11 10 10 10 9 8 10 14 15 19 19 21 20 17 11 12 11 11 10 10 8 8 8 7 7 11 15 18 19 20 18 16 7 8 9 8 6 9 8 8 12 15 8 7 5 5 6
17 15 16 16 15 14 13 13 12 13 11 11 13 13 12 10 10 10 9 10 9 9 11 18 14 17 20 21 21 21 13 13 12 11 11 9 9 9 9 8 7 12 17 19 20 20 20 16 10 7 9 11 13 16 11 9 9 8 6 6 6 5 6
16 14 14 14 15 14 12 13 13 12 12 12 12 12 12 11 11 10 9 8 8 9 10 13 21 17 19 21 23 21 18 14 15 12 11 11 10 9 8 9 9 18 18 20 20 21 21 18 11 7 9 11 12 12 10 6 8 8 6 6 6 6 6
16 14 15 14 13 13 13 13 12 11 12 12 11 11 10 11 10 10 10 9 8 8 8 9 15 21 19 22 22 23 18 16 15 12 11 10 10 10 9 8 13 20 19 20 21 20 20 17 10 12 11 10 9 9 7 6 8 8 7 6 7 7 7
Wind_Direction
178 177 176 162 161 157 163 168 180 197 192 195 200 192 193 189 175 174 177 178 179 169 170 167 163 133 131 166 178 177 155 158 173 185 193 191 196 213 221 226 238 234 240 215 231 171 180 181 232 238 217 188 186 203 186 197 196 176 164 178 157 165 163
174 164 157 158 165 167 161 163 178 192 195 194 196 203 189 194 179 173 176 175 183 181 174 171 149 144 145 157 162 170 175 166 180 205 223 213 203 205 202 223 227 221 225 237 264 245 215 198 198 199 197 202 172 202 209 196 192 172 162 170 180 177 170
162 152 159 172 176 161 159 168 178 185 188 194 193 198 198 194 184 172 173 180 187 186 188 179 152 142 146 145 155 171 175 183 174 182 209 209 208 200 199 201 212 210 227 244 230 217 228 235 251 182 195 178 194 213 197 200 202 188 162 164 177 203 154
164 157 163 173 174 171 171 173 178 180 183 190 190 190 199 198 185 174 177 185 186 191 187 162 146 150 151 153 164 176 184 186 178 173 203 206 203 199 201 199 205 205 198 212 208 210 207 199 217 245 185 199 192 206 200 177 187 207 176 157 170 178 202
170 167 173 173 178 176 175 172 171 176 182 188 190 189 192 194 184 182 179 189 188 185 186 147 152 145 153 163 172 182 187 189 177 177 179 200 203 200 207 203 208 209 212 226 219 221 219 195 217 239 227 200 199 205 163 158 184 213 199 163 174 173 204
178 173 178 180 171 171 174 172 172 180 180 186 189 191 190 186 184 184 184 193 189 189 179 155 158 155 155 167 168 179 183 178 177 177 173 184 186 194 207 207 207 209 218 217 224 228 200 215 196 251 273 288 249 182 145 152 182 222 205 183 173 181 180
183 178 184 176 170 173 180 181 179 180 180 185 182 188 185 186 186 187 184 192 180 178 165 161 159 163 152 161 163 181 179 172 191 188 183 185 183 191 190 195 211 221 225 205 212 220 231 186 220 227 271 301 66 97 123 167 171 190 235 204 185 183 172
183 185 182 172 175 179 184 187 184 179 182 182 181 176 181 185 186 187 188 191 180 174 168 167 161 150 153 150 163 186 170 173 208 200 186 180 188 189 198 198 204 212 220 216 188 206 228 218 190 198 214 247 296 142 170 177 180 208 180 213 185 185 182
182 187 179 172 180 183 182 188 185 182 182 179 179 177 184 185 183 189 185 194 179 177 172 165 161 157 155 158 169 186 185 171 211 210 185 173 207 203 200 206 214 218 210 219 193 208 240 237 193 184 184 218 239 249 176 179 181 200 193 175 185 181 174
182 187 185 175 174 180 180 188 187 186 183 180 180 178 182 188 186 187 187 189 183 176 173 170 168 164 162 161 175 184 185 188 211 209 185 180 200 201 207 204 210 213 224 209 197 201 218 235 236 184 190 208 196 230 218 228 233 180 185 174 163 190 170
184 186 183 181 169 173 179 186 184 185 190 184 179 181 181 188 188 183 187 188 183 183 173 174 173 171 168 170 180 188 187 187 190 198 220 205 198 199 204 213 204 216 217 222 195 203 215 211 210 216 222 236 208 200 226 224 242 187 201 177 160 155 157
181 182 184 184 174 175 178 185 189 190 187 186 182 181 185 185 189 184 187 190 183 179 175 178 179 177 177 176 180 183 181 180 188 195 204 202 202 195 202 207 209 214 210 200 194 204 217 186 196 200 244 247 244 201 222 213 213 259 177 176 177 147 160
178 182 184 185 183 181 179 182 188 186 190 186 190 187 185 186 187 189 189 191 187 178 181 179 184 184 182 179 176 182 186 182 193 192 190 198 196 203 207 207 204 209 206 182 195 207 196 188 195 213 231 235 217 216 95 157 164 306 349 61 144 127 145
189 179 179 184 188 186 183 183 188 189 182 193 194 189 186 189 188 192 189 196 192 180 183 184 185 188 184 177 178 182 188 188 191 192 190 193 199 203 207 211 209 205 195 194 197 198 195 195 193 207 240 240 209 164 160 186 193 222 337 35 101 80 119
186 182 176 183 192 191 186 186 185 186 194 193 194 190 186 189 192 190 194 197 197 188 188 187 184 187 184 180 184 181 191 192 194 193 188 200 202 197 193 203 215 203 193 200 202 209 190 200 204 216 217 213 211 217 194 190 191 179 169 345 94 88 107
188 181 180 184 191 195 193 188 183 187 192 191 190 194 190 191 193 191 196 194 197 195 191 189 184 184 184 182 184 182 186 195 193 196 189 199 204 194 194 200 217 209 195 201 212 217 214 205 208 198 187 183 221 223 208 187 164 189 152 189 134 118 134
188 183 185 187 193 195 195 195 189 188 189 188 188 191 195 195 195 193 194 192 197 198 190 188 184 185 187 186 185 182 183 191 195 196 197 197 208 193 195 198 207 212 201 204 209 218 212 148 141 155 197 202 203 224 207 175 180 172 147 164 186 145 162
191 187 189 192 194 193 194 195 193 192 188 189 189 191 202 197 192 192 195 195 198 197 190 189 185 185 187 184 184 185 184 190 193 195 198 202 212 215 198 201 203 201 191 204 208 203 171 151 167 190 212 208 195 206 201 166 180 181 144 163 172 182 158
189 190 191 194 194 193 194 196 193 196 194 193 194 197 202 199 194 192 196 197 202 200 192 193 191 183 185 182 184 187 188 189 190 194 197 200 216 224 218 187 187 186 203 224 206 178 166 178 192 201 211 211 197 175 182 161 162 165 185 154 159 203 203
190 191 192 192 192 193 195 197 195 195 194 196 201 202 200 201 197 196 198 198 201 194 194 192 189 182 184 184 186 188 191 190 186 189 192 199 210 229 220 208 194 182 193 222 196 175 170 188 200 201 200 207 205 158 168 161 158 175 180 162 175 172 182
193 194 193 192 191 194 194 195 195 193 189 197 207 205 201 201 196 200 201 199 197 193 195 185 184 185 185 184 185 189 190 190 185 185 193 201 206 220 221 219 210 182 194 190 182 182 180 197 188 191 198 199 196 163 166 159 166 174 165 181 190 170 161
196 192 190 188 190 193 196 196 191 189 193 199 205 208 203 199 198 200 207 199 195 190 194 189 188 188 188 188 181 188 189 187 183 188 192 200 207 209 216 226 196 188 202 181 182 185 191 189 178 182 200 187 193 169 162 159 167 169 177 181 210 166 159
193 191 190 190 190 194 196 194 190 192 194 197 203 205 204 199 200 202 205 205 196 191 191 195 192 185 183 183 184 187 187 184 183 185 188 193 200 202 207 198 188 201 203 183 183 188 186 182 167 174 189 183 188 163 168 162 174 186 183 184 201 175 174
194 194 192 193 193 192 192 190 190 193 194 197 202 204 205 201 202 204 202 203 198 194 194 198 184 179 178 180 182 185 184 181 179 183 185 188 190 197 183 182 189 204 196 181 177 175 162 144 121 123 194 186 172 170 168 171 185 192 190 184 196 180 183
194 195 193 194 195 195 191 188 191 193 195 198 201 202 204 208 205 203 202 201 201 198 198 190 172 176 177 180 180 180 178 177 178 178 182 185 176 174 181 192 197 159 169 164 144 137 131 126 117 111 114 113 101 77 90 172 186 197 195 188 188 195 185
193 195 195 195 196 194 190 190 192 193 197 200 196 198 205 208 207 202 201 202 203 200 202 178 172 173 174 174 173 170 179 176 172 177 173 178 192 183 178 188 193 158 165 152 147 149 142 129 122 124 120 114 108 117 106 67 50 129 149 184 182 198 191
190 195 197 198 196 194 191 191 192 193 194 193 196 199 204 207 206 203 201 202 202 201 204 171 172 171 172 172 171 170 179 172 174 178 175 182 187 186 181 180 188 171 163 164 165 156 151 145 147 138 146 160 145 124 114 136 166 146 139 57 338 232 211
193 198 201 203 199 198 194 190 190 191 192 194 196 198 201 203 203 204 204 201 201 201 200 164 170 171 173 174 171 171 178 174 178 178 176 180 180 173 173 177 190 175 174 172 179 167 157 161 158 160 165 178 170 162 164 163 179 182 152 221 305 33 4
180 198 216 207 203 199 193 190 191 191 193 196 197 197 201 204 202 204 206 201 201 201 174 167 171 171 172 174 171 176 180 173 175 177 178 179 180 174 174 177 187 179 177 174 183 170 163 161 167 168 173 178 187 172 180 135 111 74 66 62 74 87 71
190 188 204 209 204 200 194 193 195 188 191 195 194 195 199 199 201 200 202 203 199 203 160 180 175 173 172 171 171 184 180 173 175 178 177 176 181 174 175 176 181 184 174 178 172 170 162 158 173 179 180 179 185 179 189 96 73 86 91 84 88 96 91
202 198 194 201 202 201 197 196 195 187 192 194 195 197 195 193 195 199 201 204 197 196 135 167 174 173 171 172 174 182 182 177 175 174 173 174 177 175 173 179 180 187 176 172 163 170 163 161 175 181 180 176 182 189 182 135 118 64 71 84 82 83 91
195 201 200 194 197 199 195 193 193 190 195 195 197 193 189 193 196 196 198 201 189 184 136 167 174 170 171 176 177 179 175 183 185 180 169 173 172 165 170 179 185 183 187 154 163 169 168 168 172 176 178 176 184 192 177 150 150 138 151 137 123 121 70
199 202 198 194 194 197 194 192 190 187 192 195 192 187 188 194 195 196 193 194 184 173 147 152 177 174 174 176 179 176 178 182 191 183 177 173 171 169 173 177 187 189 171 155 167 168 173 173 174 172 175 181 184 166 74 107 112 156 212 198 177 178 170
192 200 199 195 194 194 191 190 189 186 188 189 185 184 187 191 191 194 194 195 188 172 156 157 176 180 181 180 182 180 185 191 190 184 182 178 174 173 178 178 181 169 150 166 166 170 170 177 168 180 180 174 152 136 149 176 179 198 194 196 190 181 185
193 202 201 193 192 193 191 188 185 184 185 184 182 184 183 183 187 191 192 191 192 180 156 165 164 182 183 185 187 187 185 193 187 180 182 183 177 178 176 176 177 161 161 167 171 169 173 170 151 155 163 153 142 153 183 204 177 180 175 174 191 189 187
192 196 194 188 186 186 184 184 179 179 179 181 180 181 183 184 186 188 186 191 187 179 159 168 168 174 188 187 191 195 194 190 183 180 181 184 182 184 174 178 151 156 162 169 171 173 174 170 156 146 136 136 154 173 199 195 158 173 172 175 184 197 199
188 189 188 183 180 176 179 178 176 178 180 183 182 180 183 182 184 185 185 186 181 178 155 162 171 175 184 193 196 197 202 196 182 183 183 184 183 177 175 145 154 160 165 167 172 176 178 171 160 145 131 141 165 182 194 183 151 175 180 183 186 195 204